K4TH Weather Reports


time (UTC)temp
F
wind
direction
speed
knots
gust
knots
rain 1hr
in
rain 24hr
in
rain mn
in
humidity
%
barometer
mb
20260505011353 67 46 0.0 0.0 0.00 0.00 0.00 68 1012.6
20260505010849 68 46 0.0 0.0 0.00 0.00 0.00 68 1012.6
20260505010345 68 46 0.0 0.0 0.00 0.00 0.00 67 1012.7
20260505005841 68 46 0.0 0.0 0.00 0.00 0.00 65 1012.8
20260505005338 69 46 0.0 0.0 0.00 0.00 0.00 66 1012.6
20260505004836 69 46 0.0 0.0 0.00 0.00 0.00 64 1012.6
20260505004332 70 46 0.0 0.0 0.00 0.00 0.00 64 1012.5
20260505003830 71 46 0.0 0.0 0.00 0.00 0.00 62 1012.4
20260505003327 73 47 0.0 0.0 0.00 0.00 0.00 60 1012.4
20260505002822 73 47 0.0 0.9 0.00 0.00 0.00 54 1012.4
20260505002320 73 47 0.0 0.9 0.00 0.00 0.00 53 1012.4
20260505001818 73 47 0.0 0.9 0.00 0.00 0.00 55 1012.3
20260505001314 73 47 0.0 0.0 0.00 0.00 0.00 58 1012.2
20260505000812 74 47 0.0 0.0 0.00 0.00 0.00 52 1012.4
20260505000310 74 46 0.0 0.0 0.00 0.00 0.00 50 1012.3
20260504235806 75 47 0.9 0.9 0.00 0.00 0.00 55 1012.4
20260504235304 75 46 0.0 0.0 0.00 0.00 0.00 49 1012.4
20260504234800 75 46 0.0 0.0 0.00 0.00 0.00 49 1012.3
20260504234257 75 46 0.0 0.9 0.00 0.00 0.00 48 1012.5
20260504233753 76 46 0.0 0.0 0.00 0.00 0.00 47 1012.6
20260504233249 76 47 0.0 0.9 0.00 0.00 0.00 46 1012.6
20260504232746 76 47 0.0 0.0 0.00 0.00 0.00 45 1012.5
20260504232243 77 40 0.9 0.9 0.00 0.00 0.00 45 1012.5
20260504231740 77 39 0.0 0.9 0.00 0.00 0.00 45 1012.5
20260504231237 77 40 0.0 0.9 0.00 0.00 0.00 44 1012.6
20260504230732 77 45 0.0 0.9 0.00 0.00 0.00 45 1012.4
20260504230231 77 32 0.0 0.9 0.00 0.00 0.00 45 1012.6
20260504225730 77 58 1.7 1.7 0.00 0.00 0.00 43 1012.4
20260504225225 78 55 0.9 1.7 0.00 0.00 0.00 43 1012.6
20260504224723 78 47 0.9 1.7 0.00 0.00 0.00 44 1012.6
20260504224220 78 32 0.9 0.9 0.00 0.00 0.00 45 1012.8
20260504223716 78 87 1.7 2.6 0.00 0.00 0.00 45 1012.8
20260504223212 78 60 0.9 1.7 0.00 0.00 0.00 41 1012.8
20260504222709 78 28 0.0 0.9 0.00 0.00 0.00 44 1013.0
20260504222206 78 25 0.0 0.0 0.00 0.00 0.00 44 1012.7
20260504221703 78 177 0.0 1.7 0.00 0.00 0.00 44 1012.8
20260504221200 78 33 0.0 0.9 0.00 0.00 0.00 46 1012.9
20260504220656 78 94 1.7 1.7 0.00 0.00 0.00 44 1013.0
20260504220154 79 17 0.0 0.9 0.00 0.00 0.00 44 1012.9
20260504215650 79 3 0.0 1.7 0.00 0.00 0.00 43 1013.0
20260504215148 79 46 1.7 1.7 0.00 0.00 0.00 46 1013.1
20260504214643 79 14 0.0 0.9 0.00 0.00 0.00 47 1013.0
20260504214140 78 63 0.9 1.7 0.00 0.00 0.00 48 1012.8
20260504213637 78 53 0.9 0.9 0.00 0.00 0.00 45 1013.0
20260504213133 78 42 0.0 0.9 0.00 0.00 0.00 44 1013.1
20260504212630 79 29 0.0 0.9 0.00 0.00 0.00 49 1013.0
20260504212127 79 25 0.0 0.9 0.00 0.00 0.00 47 1013.2
20260504211625 78 25 0.0 0.0 0.00 0.00 0.00 46 1013.2
20260504211120 78 23 0.0 0.0 0.00 0.00 0.00 47 1013.0
20260504210619 79 346 0.0 0.0 0.00 0.00 0.00 45 1013.1
20260504210114 79 330 0.0 0.0 0.00 0.00 0.00 44 1013.2
20260504205612 78 233 0.9 5.2 0.00 0.00 0.00 44 1013.3
20260504205110 79 114 1.7 2.6 0.00 0.00 0.00 44 1013.3
20260504204608 79 190 3.5 3.5 0.00 0.00 0.00 42 1013.3
20260504204107 78 107 1.7 2.6 0.00 0.00 0.00 41 1013.1
20260504203605 78 79 1.7 2.6 0.00 0.00 0.00 47 1013.2
20260504203102 78 64 1.7 2.6 0.00 0.00 0.00 46 1013.4
20260504202557 78 55 0.9 2.6 0.00 0.00 0.00 43 1013.4
20260504202054 79 48 0.0 0.0 0.00 0.00 0.00 42 1013.7
20260504201551 78 59 1.7 2.6 0.00 0.00 0.00 43 1013.7
20260504201049 78 173 2.6 2.6 0.00 0.00 0.00 42 1013.8
20260504200545 78 158 2.6 2.6 0.00 0.00 0.00 42 1013.9
20260504200042 79 50 0.9 0.9 0.00 0.00 0.00 47 1014.0
20260504195538 79 58 0.9 1.7 0.00 0.00 0.00 47 1014.0
20260504195035 78 59 0.9 2.6 0.00 0.00 0.00 46 1013.9
20260504194531 78 26 0.0 0.9 0.00 0.00 0.00 44 1014.2
20260504194026 78 28 0.0 0.9 0.00 0.00 0.00 44 1014.1
20260504193523 78 27 0.0 0.0 0.00 0.00 0.00 49 1014.2
20260504193022 77 26 0.0 0.9 0.00 0.00 0.00 51 1014.4
20260504192520 77 48 0.9 0.9 0.00 0.00 0.00 46 1014.3
20260504192018 78 88 2.6 2.6 0.00 0.00 0.00 44 1014.3
20260504191516 78 52 0.9 2.6 0.00 0.00 0.00 47 1014.6
20260504191012 78 36 0.9 1.7 0.00 0.00 0.00 45 1014.6
20260504190508 78 51 0.0 0.9 0.00 0.00 0.00 48 1014.8
20260504190004 78 5 0.9 1.7 0.00 0.00 0.00 45 1014.7
20260504185501 78 37 0.0 0.0 0.00 0.00 0.00 47 1014.6
20260504184957 77 20 0.0 0.9 0.00 0.00 0.00 47 1015.0
20260504184453 76 179 1.7 2.6 0.00 0.00 0.00 47 1015.1
20260504183949 76 83 1.7 2.6 0.00 0.00 0.00 48 1015.4
20260504183446 76 178 2.6 2.6 0.00 0.00 0.00 47 1015.3
20260504182944 76 118 1.7 3.5 0.00 0.00 0.00 47 1015.4
20260504182440 76 180 3.5 3.5 0.00 0.00 0.00 51 1015.3
20260504181938 76 171 3.5 5.2 0.00 0.00 0.00 47 1015.3
20260504181435 76 164 2.6 2.6 0.00 0.00 0.00 50 1015.4
20260504180934 76 35 0.9 2.6 0.00 0.00 0.00 50 1015.7
20260504180432 77 141 2.6 2.6 0.00 0.00 0.00 49 1015.7
20260504175930 76 67 1.7 2.6 0.00 0.00 0.00 52 1015.5
20260504175427 76 121 1.7 2.6 0.00 0.00 0.00 52 1015.7
20260504174925 76 46 0.9 0.9 0.00 0.00 0.00 48 1015.7
20260504174422 76 65 1.7 2.6 0.00 0.00 0.00 49 1015.9
20260504173919 76 29 0.9 1.7 0.00 0.00 0.00 47 1016.0
20260504173416 77 87 1.7 3.5 0.00 0.00 0.00 50 1015.9
20260504172913 76 85 1.7 1.7 0.00 0.00 0.00 48 1016.0
20260504172409 76 59 1.7 1.7 0.00 0.00 0.00 49 1016.3
20260504171905 76 334 0.9 2.6 0.00 0.00 0.00 51 1016.3
20260504171403 77 86 1.7 3.5 0.00 0.00 0.00 50 1016.4
20260504170859 77 54 1.7 1.7 0.00 0.00 0.00 50 1016.5
20260504170356 77 71 0.9 1.7 0.00 0.00 0.00 45 1016.6
20260504160315 75 42 0.0 1.7 0.00 0.00 0.00 54 1017.5
20260504150739 70 67 0.9 2.6 0.00 0.00 0.00 62 1017.3
20260504150236 69 63 0.0 0.9 0.00 0.00 0.00 61 1017.5
20260504141206 64 65 0.9 1.7 0.00 0.00 0.00 73 1017.7
20260504140702 64 75 1.7 2.6 0.00 0.00 0.00 74 1018.1
20260504140158 63 60 0.9 0.9 0.00 0.00 0.00 77 1017.9
20260504130626 57 40 0.0 0.0 0.00 0.00 0.00 96 1018.0
20260504130123 56 40 0.0 0.0 0.00 0.00 0.00 97 1018.0
20260504110514 48 42 0.0 0.0 0.00 0.00 0.00 99 1017.4
20260504100436 49 43 0.0 0.0 0.00 0.00 0.00 99 1017.0
20260504081829 50 44 0.0 0.0 0.00 0.00 0.00 97 1017.3
20260504081326 50 44 0.0 0.0 0.00 0.00 0.00 97 1017.3
20260504080822 50 45 0.0 0.0 0.00 0.00 0.00 97 1017.2
20260504080320 50 45 0.0 0.0 0.00 0.00 0.00 97 1017.3
20260504070246 51 45 0.0 0.0 0.00 0.00 0.00 94 1017.2
20260504060207 52 45 0.0 0.0 0.00 0.00 0.00 91 1017.7
20260504050635 52 45 0.0 0.0 0.00 0.00 0.00 93 1017.9
20260504050132 52 45 0.0 0.9 0.00 0.00 0.00 93 1018.0
20260504045629 53 45 0.0 0.0 0.00 0.00 0.00 93 1018.0
20260504045129 53 45 0.0 0.0 0.00 0.00 0.00 94 1018.1
20260504044627 53 45 0.0 0.0 0.00 0.00 0.00 94 1018.1
20260504044124 53 45 0.0 0.0 0.00 0.00 0.00 94 1018.0
20260504043621 53 45 0.0 0.0 0.00 0.00 0.00 94 1018.1
20260504043118 53 45 0.0 0.0 0.00 0.00 0.00 94 1018.1
20260504042615 53 45 0.0 0.0 0.00 0.00 0.00 94 1018.1
20260504042112 53 45 0.0 0.0 0.00 0.00 0.00 94 1018.3
20260504041607 53 45 0.0 0.9 0.00 0.00 0.00 93 1018.1
20260504041104 53 45 0.0 0.0 0.00 0.00 0.00 94 1018.2
20260504040602 53 45 0.0 0.0 0.00 0.00 0.00 94 1018.2
20260504040058 53 45 0.0 0.0 0.00 0.00 0.00 93 1018.4
20260504035555 53 45 0.0 0.9 0.00 0.00 0.00 93 1018.5
20260504035051 54 45 0.0 0.0 0.00 0.00 0.00 92 1018.4
20260504034549 54 45 0.0 0.0 0.00 0.00 0.00 92 1018.5
20260504034046 54 45 0.0 0.0 0.00 0.00 0.00 91 1018.4
20260504033544 54 45 0.0 0.0 0.00 0.00 0.00 91 1018.3
20260504033041 54 45 0.0 0.0 0.00 0.00 0.00 91 1018.5
20260504032538 54 45 0.0 0.0 0.00 0.00 0.00 91 1018.4
20260504032034 54 45 0.0 0.0 0.00 0.00 0.00 90 1018.3
20260504031531 54 45 0.0 0.0 0.00 0.00 0.00 89 1018.3
20260504031027 54 45 0.0 0.0 0.00 0.00 0.00 89 1018.2
20260504030525 54 45 0.0 0.0 0.00 0.00 0.00 89 1018.1
20260504030021 54 45 0.0 0.0 0.00 0.00 0.00 88 1018.2
20260504025518 54 45 0.0 0.0 0.00 0.00 0.00 88 1018.0
20260504025015 55 45 0.0 0.9 0.00 0.00 0.00 87 1018.2
20260504024512 55 45 0.0 0.0 0.00 0.00 0.00 86 1017.9
20260504024009 55 45 0.0 0.0 0.00 0.00 0.00 85 1018.1
20260504023506 55 45 0.0 0.0 0.00 0.00 0.00 85 1018.1
20260504023001 55 45 0.0 0.0 0.00 0.00 0.00 84 1018.1
20260504022457 55 45 0.0 0.0 0.00 0.00 0.00 83 1017.9
20260504021954 56 45 0.0 0.0 0.00 0.00 0.00 83 1017.8
20260504021452 56 45 0.0 0.0 0.00 0.00 0.00 82 1017.8
20260504020949 56 45 0.0 0.0 0.00 0.00 0.00 82 1017.7
20260504020445 56 45 0.0 0.0 0.00 0.00 0.00 81 1017.7
20260504015942 56 45 0.0 0.0 0.00 0.00 0.00 80 1017.8
20260504015438 56 45 0.0 0.9 0.00 0.00 0.00 79 1017.7
20260504014934 57 45 0.0 0.9 0.00 0.00 0.00 78 1017.7
20260504014430 57 45 0.0 0.0 0.00 0.00 0.00 77 1017.6
20260504013927 57 45 0.0 0.0 0.00 0.00 0.00 78 1017.7
20260504013426 57 45 0.0 0.0 0.00 0.00 0.00 77 1017.6
20260504012927 57 45 0.0 0.0 0.00 0.00 0.00 77 1017.5
20260504012425 57 45 0.0 0.0 0.00 0.00 0.00 76 1017.6
20260504011922 58 45 0.0 0.0 0.00 0.00 0.00 76 1017.4